STARLINK-5278 (54164 NORAD) Tracking and Keplerian Element Data

This shows tracking and keplerian element data for the satellite.

Feedback or suggestion? Click here.




ElementValue
Catalog54164
NameSTARLINK-5278
Epoch Orbit384
Epoch Day325.25001157
Epoch Year2022
RAAN24.1236
Inclination53.2192
Eccentricity0.0003061
Argument of Perigee8.5391
Mean Anonmoly8.1652
Mean Motion15.73160596
Decay Rate0.00026818
L11 54164U 22141H 22325.25001157 .00026818 00000+0 19519-3 0 9997
L22 54164 53.2192 24.1236 0003061 8.5391 8.1652 15.73160596 3848



Live tracking and technical data element details for STARLINK-5278 (NORAD 54164). STARLINK-5278 can be tracked NOW for your location showing map with azimuth and elevation plus other details from your city location.







IsCatalogInMostPopularTable: catalog: 54164, numindb: 8
Update: records affected: 1



GetName: 54164 STARLINK-5278

Hit Count: updated at: Sun, 04 Dec 2022 23:07:55 GMT